Location: The Saddle
(36.8333°N, 80.3417°W)
Time: 07:19:42
(UTC-04:00)

A-11 Canister half - Pass Details

Date: 27 May 2024
Orbit: 1515 x 1685 km, 47.2° (Epoch: 17 June)

Event Time Altitude Azimuth Distance (km) Brightness Sun altitude
Rises 05:13:47 0° 285° (WNW) 4,748 11.2 -9.6°
Reaches altitude 10° 05:17:08 10° 292° (WNW) 3,742 10.7 -9.1°
Maximum altitude 05:26:02 44° 3° (N) 2,002 10.0 -7.6°
Drops below altitude 10° 05:34:47 10° 74° (ENE) 3,674 12.5 -6.2°
Sets 05:38:01 0° 81° (E) 4,655 13.0 -5.6°
